FW7551 Weather Reports


time (UTC)temp
F
wind
direction
speed
knots
gust
knots
rain 1hr
in
rain 24hr
in
rain mn
in
humidity
%
barometer
mb
20260504194612 69 184 2.6 6.1 0.00 0.00 0.00 49 1008.6
20260504194107 68 172 0.0 7.8 0.00 0.00 0.00 50 1009.1
20260504193604 68 161 5.2 9.6 0.00 0.00 0.00 47 1008.9
20260504193103 68 190 4.3 11.3 0.00 0.00 0.00 48 1008.8
20260504192600 68 131 0.9 9.6 0.00 0.00 0.00 49 1008.8
20260504192058 68 134 1.7 7.8 0.00 0.00 0.00 49 1008.8
20260504191556 67 124 2.6 7.8 0.00 0.00 0.00 49 1009.0
20260504191052 68 158 4.3 8.7 0.00 0.00 0.00 49 1008.9
20260504190548 69 145 4.3 6.1 0.00 0.00 0.00 48 1009.0
20260504190044 68 152 3.5 7.8 0.00 0.00 0.00 49 1008.9
20260504185542 68 80 2.6 9.6 0.00 0.00 0.00 46 1009.3
20260504185038 68 134 0.9 11.3 0.00 0.00 0.00 46 1009.3
20260504184534 69 174 3.5 12.2 0.00 0.00 0.00 45 1009.1
20260504184029 68 144 5.2 7.0 0.00 0.00 0.00 46 1009.4
20260504183527 68 297 2.6 7.8 0.00 0.00 0.00 45 1009.4
20260504183025 67 232 6.1 11.3 0.00 0.00 0.00 45 1009.2
20260504182521 68 153 2.6 5.2 0.00 0.00 0.00 46 1009.8
20260504182019 68 194 2.6 6.1 0.00 0.00 0.00 45 1009.6
20260504181515 68 134 1.7 7.0 0.00 0.00 0.00 49 1009.5
20260504181014 67 135 7.8 11.3 0.00 0.00 0.00 46 1009.8
20260504180512 67 24 4.3 9.6 0.00 0.00 0.00 46 1009.6
20260504180010 68 164 1.7 8.7 0.00 0.00 0.00 47 1010.0
20260504175508 67 171 0.9 6.1 0.00 0.00 0.00 45 1009.8
20260504175004 67 226 2.6 7.0 0.00 0.00 0.00 47 1010.1
20260504174502 67 232 4.3 7.8 0.00 0.00 0.00 46 1010.0
20260504173959 67 286 6.1 11.3 0.00 0.00 0.00 44 1010.2
20260504173456 68 257 5.2 9.6 0.00 0.00 0.00 45 1009.9
20260504172953 68 101 1.7 5.2 0.00 0.00 0.00 47 1009.8
20260504172449 67 167 2.6 7.8 0.00 0.00 0.00 46 1010.1
20260504171946 68 316 4.3 7.8 0.00 0.00 0.00 46 1010.3
20260504171443 67 359 4.3 13.0 0.00 0.00 0.00 46 1010.1
20260504170940 67 199 1.7 5.2 0.00 0.00 0.00 48 1010.1
20260504170436 67 144 4.3 9.6 0.00 0.00 0.00 45 1010.2
20260504160355 67 56 1.7 11.3 0.00 0.00 0.00 39 1010.8
20260504150820 66 307 2.6 6.1 0.00 0.00 0.00 38 1011.7
20260504150316 66 271 4.3 7.8 0.00 0.00 0.00 39 1011.4
20260504141247 63 256 2.6 7.0 0.00 0.00 0.00 46 1011.9
20260504140743 63 24 1.7 5.2 0.00 0.00 0.00 45 1011.8
20260504140239 63 131 1.7 6.1 0.00 0.00 0.00 44 1011.7
20260504130707 60 184 1.7 4.3 0.00 0.00 0.00 51 1012.2
20260504130203 60 151 2.6 7.0 0.00 0.00 0.00 51 1012.4
20260504120127 56 156 0.0 0.9 0.00 0.00 0.00 55 1012.6
20260504110555 52 114 0.9 2.6 0.00 0.00 0.00 60 1012.9
20260504100516 48 157 1.7 1.7 0.00 0.00 0.00 64 1012.7
20260504081910 51 157 0.0 1.7 0.00 0.00 0.00 57 1011.8
20260504081406 51 139 0.0 1.7 0.00 0.00 0.00 56 1011.7
20260504080902 51 145 0.0 0.9 0.00 0.00 0.00 57 1011.7
20260504080359 51 153 0.0 1.7 0.00 0.00 0.00 56 1011.7
20260504070321 51 127 0.9 2.6 0.00 0.00 0.00 58 1011.3
20260504060241 47 139 0.9 0.9 0.00 0.00 0.00 66 1011.1
20260504050709 46 148 0.9 1.7 0.00 0.00 0.00 67 1011.1
20260504050206 45 163 0.9 0.9 0.00 0.00 0.00 69 1010.9
20260504045703 45 153 0.0 1.7 0.00 0.00 0.00 67 1011.0
20260504045158 44 148 0.0 2.6 0.00 0.00 0.00 71 1011.0
20260504044656 43 144 0.0 0.9 0.00 0.00 0.00 73 1011.0
20260504044153 43 144 0.0 0.0 0.00 0.00 0.00 74 1011.1
20260504043650 43 150 0.0 0.9 0.00 0.00 0.00 74 1011.1
20260504043147 43 141 0.0 0.9 0.00 0.00 0.00 74 1010.9
20260504042644 44 148 0.9 0.9 0.00 0.00 0.00 73 1011.1
20260504042140 43 143 0.0 0.9 0.00 0.00 0.00 74 1010.9
20260504041636 44 156 0.9 0.9 0.00 0.00 0.00 73 1011.0
20260504041132 44 162 0.9 0.9 0.00 0.00 0.00 72 1010.8
20260504040630 43 151 0.9 0.9 0.00 0.00 0.00 73 1011.0
20260504040127 43 148 0.0 0.9 0.00 0.00 0.00 74 1010.9
20260504035624 43 147 0.0 0.9 0.00 0.00 0.00 75 1010.9
20260504035120 43 147 0.0 0.9 0.00 0.00 0.00 75 1011.0
20260504034618 43 145 0.0 0.9 0.00 0.00 0.00 75 1010.9
20260504034114 43 147 0.0 0.9 0.00 0.00 0.00 75 1010.9
20260504033613 44 150 0.0 0.9 0.00 0.00 0.00 75 1010.8
20260504033110 44 147 0.0 0.9 0.00 0.00 0.00 74 1010.8
20260504032606 44 163 0.9 0.9 0.00 0.00 0.00 75 1010.8
20260504032103 44 160 0.9 0.9 0.00 0.00 0.00 75 1010.9
20260504031601 43 155 0.0 0.9 0.00 0.00 0.00 76 1010.9
20260504031056 43 147 0.0 0.9 0.00 0.00 0.00 76 1010.8
20260504030554 43 148 0.0 0.9 0.00 0.00 0.00 75 1010.8
20260504030050 43 147 0.0 0.9 0.00 0.00 0.00 75 1010.7
20260504025547 43 153 0.9 0.9 0.00 0.00 0.00 74 1010.8
20260504025044 44 152 0.9 0.9 0.00 0.00 0.00 74 1010.7
20260504024541 44 149 0.0 0.9 0.00 0.00 0.00 74 1010.8
20260504024038 44 147 0.0 0.9 0.00 0.00 0.00 73 1010.6
20260504023534 44 149 0.0 0.9 0.00 0.00 0.00 73 1010.6
20260504023030 44 153 0.0 0.9 0.00 0.00 0.00 73 1010.6
20260504022526 44 151 0.0 0.9 0.00 0.00 0.00 73 1010.8
20260504022023 45 147 0.0 0.0 0.00 0.00 0.00 72 1010.8
20260504021521 45 148 0.0 0.0 0.00 0.00 0.00 72 1010.6
20260504021017 45 153 0.9 0.9 0.00 0.00 0.00 71 1010.6
20260504020514 45 149 0.0 0.9 0.00 0.00 0.00 70 1010.5
20260504020011 46 153 0.9 0.9 0.00 0.00 0.00 70 1010.6
20260504015507 46 147 0.0 0.9 0.00 0.00 0.00 69 1010.7
20260504015003 46 150 0.0 0.9 0.00 0.00 0.00 69 1010.6
20260504014459 46 146 0.0 0.0 0.00 0.00 0.00 69 1010.6
20260504013956 47 147 0.0 0.0 0.00 0.00 0.00 68 1010.4
20260504013455 47 151 0.0 0.9 0.00 0.00 0.00 68 1010.5
20260504012950 47 146 0.0 0.9 0.00 0.00 0.00 67 1010.5
20260504012449 48 145 0.0 0.0 0.00 0.00 0.00 67 1010.2
20260504011946 48 145 0.0 0.0 0.00 0.00 0.00 66 1010.5
20260504011442 49 147 0.0 0.9 0.00 0.00 0.00 67 1010.2
20260504010938 49 146 0.0 0.0 0.00 0.00 0.00 66 1010.0
20260504010434 50 146 0.0 0.9 0.00 0.00 0.00 66 1010.2
20260504005931 50 154 0.9 0.9 0.00 0.00 0.00 65 1010.2
20260504005427 50 156 0.9 0.9 0.00 0.00 0.00 65 1010.2
20260504004925 50 147 0.0 0.9 0.00 0.00 0.00 65 1009.8
20260504004423 51 147 0.9 0.9 0.00 0.00 0.00 64 1009.9
20260504003919 51 146 0.0 0.0 0.00 0.00 0.00 65 1009.8
20260504003416 52 145 0.0 0.9 0.00 0.00 0.00 62 1009.8
20260504002912 52 147 0.0 0.9 0.00 0.00 0.00 61 1009.6
20260504002409 52 144 0.0 0.0 0.00 0.00 0.00 60 1009.6
20260504001907 52 145 0.9 0.9 0.00 0.00 0.00 58 1009.5
20260504001405 53 144 0.0 0.0 0.00 0.00 0.00 58 1009.5
20260504000901 53 113 0.9 0.9 0.00 0.00 0.00 57 1009.4
20260504000358 53 132 0.0 0.9 0.00 0.00 0.00 56 1009.3
20260503235855 53 146 0.0 0.9 0.00 0.00 0.00 55 1009.3
20260503235353 53 152 0.9 0.9 0.00 0.00 0.00 53 1009.0
20260503234850 53 132 0.0 0.0 0.00 0.00 0.00 51 1009.0
20260503234348 54 142 0.0 0.0 0.00 0.00 0.00 51 1009.2
20260503233845 54 158 0.9 4.3 0.00 0.00 0.00 50 1008.8
20260503233341 54 137 0.0 0.0 0.00 0.00 0.00 50 1008.9
20260503232838 54 254 1.7 1.7 0.00 0.00 0.00 50 1008.9
20260503232335 55 140 0.0 0.9 0.00 0.00 0.00 49 1008.8
20260503231833 55 40 0.9 2.6 0.00 0.00 0.00 45 1008.8
20260503231330 55 113 2.6 2.6 0.00 0.00 0.00 44 1008.7
20260503230826 55 137 0.9 2.6 0.00 0.00 0.00 45 1009.0
20260503230323 55 124 0.0 0.9 0.00 0.00 0.00 49 1008.5
20260503225821 56 159 0.9 1.7 0.00 0.00 0.00 47 1008.5
20260503225316 56 232 1.7 2.6 0.00 0.00 0.00 46 1008.7
20260503224813 56 141 0.9 6.1 0.00 0.00 0.00 44 1008.7
20260503224310 57 206 0.9 1.7 0.00 0.00 0.00 43 1008.4
20260503223808 57 138 0.0 1.7 0.00 0.00 0.00 42 1008.7
20260503223305 57 140 0.9 2.6 0.00 0.00 0.00 40 1008.4
20260503222801 58 140 0.0 1.7 0.00 0.00 0.00 40 1008.4
20260503222300 59 225 2.6 2.6 0.00 0.00 0.00 40 1008.4
20260503221757 58 133 0.9 1.7 0.00 0.00 0.00 39 1008.5
20260503221255 58 328 0.9 2.6 0.00 0.00 0.00 39 1008.5
20260503220751 59 288 2.6 5.2 0.00 0.00 0.00 38 1008.3
20260503220249 59 157 0.0 4.3 0.00 0.00 0.00 40 1008.2
20260503215745 59 82 1.7 2.6 0.00 0.00 0.00 38 1008.4
20260503215242 59 279 0.9 7.0 0.00 0.00 0.00 38 1008.3
20260503214740 59 245 0.9 2.6 0.00 0.00 0.00 40 1008.3
20260503214236 59 251 2.6 7.8 0.00 0.00 0.00 39 1008.4
20260503213735 59 127 1.7 2.6 0.00 0.00 0.00 40 1008.4
20260503213232 59 251 2.6 6.1 0.00 0.00 0.00 40 1008.5
20260503212728 59 241 1.7 6.1 0.00 0.00 0.00 38 1008.2
20260503212226 59 292 1.7 2.6 0.00 0.00 0.00 39 1008.4
20260503211724 59 345 1.7 5.2 0.00 0.00 0.00 42 1008.1
20260503211220 59 306 1.7 6.1 0.00 0.00 0.00 38 1008.1
20260503210715 59 162 1.7 4.3 0.00 0.00 0.00 38 1008.0
20260503210213 58 234 2.6 2.6 0.00 0.00 0.00 40 1008.4
20260503205708 59 239 2.6 5.2 0.00 0.00 0.00 39 1008.1
20260503205204 58 129 0.9 7.0 0.00 0.00 0.00 41 1008.1
20260503204701 58 299 4.3 6.1 0.00 0.00 0.00 39 1008.3
20260503204159 59 8 2.6 2.6 0.00 0.00 0.00 41 1008.3
20260503203655 59 299 1.7 5.2 0.00 0.00 0.00 41 1008.2
20260503203153 58 258 2.6 4.3 0.00 0.00 0.00 38 1008.3
20260503202650 58 352 0.9 5.2 0.00 0.00 0.00 41 1008.3
20260503202148 59 317 2.6 2.6 0.00 0.00 0.00 39 1008.2
20260503201646 59 187 1.7 5.2 0.00 0.00 0.00 40 1008.3
20260503201143 58 134 0.0 2.6 0.00 0.00 0.00 43 1008.4
20260503200639 59 346 2.6 6.1 0.00 0.00 0.00 43 1008.2
20260503200135 58 40 1.7 4.3 0.00 0.00 0.00 49 1008.3
20260503195633 58 10 2.6 5.2 0.00 0.00 0.00 41 1008.5
20260503195130 58 357 0.9 4.3 0.00 0.00 0.00 44 1008.3